Location: Kiltepe
(36.4752°N, 30.0120°E)
Time: 11:06:22
(UTC+00:00)

Resurs 01 Rocket - Pass Details

Date: 03 August 2024
Orbit: 629 x 639 km, 97.8° (Epoch: 19 September)

Event Time Altitude Azimuth Distance (km) Brightness Sun altitude
Exits shadow 18:39:19 - 196° (SSW) 2,719 4.6 -17.5°
Reaches altitude 10° 18:41:18 10° 208° (SSW) 2,009 4.1 -17.8°
Maximum altitude 18:44:57 26° 264° (W) 1,263 3.6 -18.3°
Drops below altitude 10° 18:48:38 10° 321° (NW) 2,027 5.4 -18.9°
Sets 18:51:10 0° 334° (NNW) 2,943 6.2 -19.3°
